Weather in Skagen

Denmark     57°43′21″N   10°35′00″E
temp.,
°C
wind,
m/s
gust,
m/s
humid.,
%
clouds,
%
prec.,
mm/h
press.,
hPa
HPBL,
m
14 august, sun
sun1423:00+19s33745 0.0 101825
02:00+19s33691 0.0 101827
05:00+19sse457568 0.0 101746
08:00+19s227847 0.0 101617
11:00+19se458361 0.0 101657
14:00+19se4585100 0.0 101557
17:00+20se3381100 0.0 101434
20:00+20ne2369100 0.0 101211
15 august, mon
mon1523:00+19ene468096 0.0 101258
02:00+19se338423 0.0 101130
05:00+19sse228496 0.0 101019
08:00+19e5782100 0.0 1009121
11:00+19e57868 0.0 1009154
14:00+20ese448374 0.0 100842
17:00+21ne33795 0.0 100620
20:00+20e69919 0.8 1006125
16 august, tue
tue1623:00+19e68929 2.9 1007111
02:00+20se610895 5.6 1006135
05:00+19se711935 1.0 1005195
08:00+19se699317 2.8 1005174
11:00+19se799571 2.8 1006191
14:00+19sse688913 6.8 1006116
17:00+21wsw337899 0.0 100622
20:00+19w578914 0.3 1008144
17 august, wed
wed1723:00+19wsw4583100 0.0 100966
02:00+18s4482100 0.0 101054
05:00+19s4583100 0.0 101083
08:00+18sw4681100 0.0 1010104
11:00+19wsw348050 0.0 101142
14:00+19w2386100 0.0 1012130
17:00+19w4587100 0.0 1012133
20:00+17wsw6788100 0.0 1012250
18 august, thu
thu1823:00+17wsw5781100 0.0 1012231
02:00+17wsw457998 0.1 1012242
05:00+17sw2275100 0.0 1012119
08:00+17sse0070100 0.0 101284
11:00+18n2274100 0.0 101291
14:00+18n3378100 0.0 101298
17:00+19n338227 0.0 101160
20:00+18nnw45845 0.1 1011107